Sanford, FL

7:15 AM EST on December 13, 2017 (GMT -0500)
Orlando Sanford

Weather History for KSFB - March, 2014

Change the Weather History Date:

Thursday, March 6, 2014

  Actual Average Record
Temperature  
Mean Temperature 64 °F -  
Max Temperature 70 °F 76 °F 90 °F (2003)
Min Temperature 57 °F 54 °F 32 °F (1962)
Degree Days  
Heating Degree Days 2    
Growing Degree Days 14 (Base 50)    
Moisture  
Dew Point 61 °F    
Average Humidity 92    
Maximum Humidity 97    
Minimum Humidity 76    
Precipitation  
Precipitation 0.06 in - - ()
Sea Level Pressure  
Sea Level Pressure 29.88 in    
Wind  
Wind Speed 7 mph (North)    
Max Wind Speed 12 mph    
Max Gust Speed -    
Visibility 8 miles    
Events Rain    
Averages and records for this station are not official NWS values.
T = Trace of Precipitation, MM = Missing Value Source: NWS Daily Summary

Daily Weather History Graph

Daily Weather History Graph

Search for Another Location

Airport or City:

Trip Planner

Search our weather history database for the weather conditions in past years. The results will help you decide how hot, cold, wet, or windy it might be!

Date:

Astronomy

Mar. 06, 2014 Rise Set
Actual Time 6:44 AM EST 6:28 PM EST
Civil Twilight 6:21 AM EST 6:51 PM EST
Nautical Twilight 5:53 AM EST 7:19 PM EST
Astronomical Twilight 5:26 AM EST 7:46 PM EST
Moon 10:18 AM EST (3/6) No Moon Set
Length of Visible Light 12h 30m
Length of Day
11h 43m
Waxing Crescent, 32% of the Moon is Illuminated
Mar 6
Waxing Crescent
Mar 8
First Quarter
Mar 16
Full
Mar 23
Last Quarter
Mar 30
New

Hourly Weather History & Observations

Time (EST) Temp. Dew Point Humidity Pressure Visibility Wind Dir Wind Speed Gust Speed Precip Events Conditions
12:04 AM 57.9 °F 55.9 °F 93% 30.05 in 6.0 mi NNE 8.1 mph - N/A   Overcast
12:53 AM 57.9 °F 57.0 °F 97% 30.04 in 4.0 mi North 8.1 mph - N/A   Overcast
1:53 AM 59.0 °F 57.9 °F 96% 30.02 in 6.0 mi North 9.2 mph - N/A   Overcast
2:53 AM 59.0 °F 57.9 °F 96% 29.95 in 6.0 mi East 8.1 mph - N/A   Overcast
3:53 AM 61.0 °F 60.1 °F 97% 29.95 in 7.0 mi North 8.1 mph - N/A   Overcast
4:53 AM 61.0 °F 60.1 °F 97% 29.93 in 5.0 mi NNE 6.9 mph - N/A   Overcast
5:53 AM 62.1 °F 61.0 °F 96% 29.96 in 6.0 mi NNE 6.9 mph - N/A   Overcast
6:53 AM 63.0 °F 62.1 °F 97% 29.95 in 6.0 mi NNE 6.9 mph - N/A   Overcast
7:46 AM 64.0 °F 63.0 °F 96% 29.94 in 6.0 mi NNE 5.8 mph - N/A   Overcast
7:53 AM 64.0 °F 63.0 °F 96% 29.94 in 6.0 mi NNE 6.9 mph - N/A   Overcast
8:26 AM 64.0 °F 63.0 °F 96% 29.93 in 7.0 mi NE 5.8 mph - N/A   Overcast
8:53 AM 64.9 °F 63.0 °F 93% 29.92 in 7.0 mi ENE 4.6 mph - 0.00 in Rain Light Rain
9:53 AM 66.0 °F 64.9 °F 96% 29.94 in 9.0 mi SSE 4.6 mph - 0.00 in Rain Light Rain
10:53 AM 68.0 °F 66.0 °F 93% 29.93 in 10.0 mi Calm Calm - 0.00 in Rain Light Rain
11:53 AM 70.0 °F 66.9 °F 90% 29.92 in 10.0 mi WSW 4.6 mph - 0.00 in Rain Light Rain
12:53 PM 69.1 °F 66.9 °F 93% 29.90 in 7.0 mi West 6.9 mph - 0.02 in Rain Light Rain
1:53 PM 66.9 °F 64.0 °F 90% 29.87 in 6.0 mi West 11.5 mph - 0.03 in Rain Rain
2:53 PM 69.1 °F 64.0 °F 84% 29.79 in 10.0 mi SW 10.4 mph - 0.01 in   Clear
3:53 PM 70.0 °F 63.0 °F 78% 29.72 in 10.0 mi SSW 10.4 mph - 0.00 in   Scattered Clouds
4:53 PM 70.0 °F 62.1 °F 76% 29.74 in 10.0 mi Calm Calm - N/A   Clear
5:53 PM 68.0 °F 63.0 °F 84% 29.77 in 10.0 mi NW 6.9 mph - N/A   Partly Cloudy
6:53 PM 66.9 °F 63.0 °F 87% 29.80 in 10.0 mi NNW 5.8 mph - N/A   Overcast
7:12 PM 66.9 °F 63.0 °F 87% 29.80 in 10.0 mi NNW 9.2 mph - N/A   Overcast
7:53 PM 63.0 °F 60.1 °F 90% 29.81 in 10.0 mi NE 9.2 mph - N/A   Overcast
8:53 PM 62.1 °F 59.0 °F 90% 29.82 in 10.0 mi NNE 5.8 mph - N/A   Overcast
9:53 PM 61.0 °F 59.0 °F 93% 29.82 in 10.0 mi NE 5.8 mph - 0.00 in   Overcast
10:53 PM 60.1 °F 57.9 °F 93% 29.82 in 10.0 mi NNE 5.8 mph - N/A   Overcast
11:00 PM 60.1 °F 57.9 °F 93% 29.81 in 10.0 mi NE 4.6 mph - N/A   Overcast
11:17 PM 59.0 °F 57.9 °F 96% 29.81 in 10.0 mi NNE 4.6 mph - N/A   Mostly Cloudy
11:33 PM 60.1 °F 57.9 °F 93% 29.81 in 10.0 mi North 4.6 mph - N/A   Mostly Cloudy
11:43 PM 60.1 °F 57.9 °F 93% 29.81 in 10.0 mi North 3.5 mph - N/A   Mostly Cloudy
11:53 PM 60.1 °F 57.9 °F 93% 29.81 in 10.0 mi North 6.9 mph - N/A   Overcast